This is the latest recevied weather packets stored in our database for station/object DL0BB-10. If no packets are shown the sender has not sent any weather packets the latest 10 day(s).
| Time | Temp. | Humidity | Pressure | Rain* | Wind** | Luminosity | Snow |
|---|---|---|---|---|---|---|---|
| 1787441361 | 26.67° C | 35% | 1022.9 hPa | - | - | - | - |
| 1787440460 | 25.56° C | 37% | 1023 hPa | - | - | - | - |
| 1787439559 | 25.56° C | 36% | 1022.8 hPa | - | - | - | - |
| 1787438659 | 26.11° C | 35% | 1022.8 hPa | - | - | - | - |
| 1787437759 | 26.67° C | 35% | 1022.7 hPa | - | - | - | - |
| 1787436859 | 25.56° C | 37% | 1022.7 hPa | - | - | - | - |
| 1787435959 | 26.11° C | 36% | 1022.6 hPa | - | - | - | - |
| 1787435059 | 26.67° C | 35% | 1022.6 hPa | - | - | - | - |
| 1787434159 | 26.67° C | 35% | 1022.6 hPa | - | - | - | - |
| 1787432358 | 26.11° C | 36% | 1022.5 hPa | - | - | - | - |
| 1787431461 | 26.67° C | 35% | 1022.4 hPa | - | - | - | - |
| 1787430561 | 26.67° C | 36% | 1022.4 hPa | - | - | - | - |
| 1787429661 | 26.11° C | 37% | 1022.3 hPa | - | - | - | - |
| 1787428761 | 26.67° C | 36% | 1022.1 hPa | - | - | - | - |
| 1787427861 | 27.22° C | 35% | 1022.2 hPa | - | - | - | - |
| 1787426961 | 26.67° C | 37% | 1022.1 hPa | - | - | - | - |
| 1787426061 | 26.11° C | 37% | 1022 hPa | - | - | - | - |
| 1787425161 | 26.67° C | 36% | 1021.7 hPa | - | - | - | - |
| 1787424261 | 27.22° C | 35% | 1021.4 hPa | - | - | - | - |
| 1787423360 | 26.67° C | 37% | 1021.2 hPa | - | - | - | - |
| 1787422460 | 26.67° C | 37% | 1021 hPa | - | - | - | - |
| 1787421560 | 27.22° C | 36% | 1020.9 hPa | - | - | - | - |
| 1787420660 | 27.78° C | 35% | 1020.9 hPa | - | - | - | - |
| 1787419759 | 26.67° C | 37% | 1020.8 hPa | - | - | - | - |
| 1787418859 | 26.67° C | 37% | 1020.7 hPa | - | - | - | - |
* Rain since midnight (hover to see other rain measurements)
** Current wind speed in m/s (hover to see current wind gust speed)